Location: ????? ????
(37.9717°N, 23.4051°E)
Time: 13:52:36
(UTC+00:00)

Okean O Rocket - Pass Details

Date: 18 April 2024
Orbit: 619 x 639 km, 98.1° (Epoch: 17 May)

Event Time Altitude Azimuth Distance (km) Brightness Sun altitude
Exits shadow 19:24:17 12° 219° (SW) 1,851 4.0 -25.1°
Maximum altitude 19:27:08 21° 265° (W) 1,394 3.8 -25.5°
Drops below altitude 10° 19:30:29 10° 316° (NW) 2,009 5.2 -26.0°
Sets 19:33:09 0° 332° (NNW) 2,926 6.1 -26.4°
